THOR ABLESTAR DEB, 1522

Orbit data source: Space-Track

THOR ABLESTAR DEB, 1522 is space debris in LEO originally from a launch on Fri, 13 Aug 1965 UTC launched from the Air Force Western Test Range (AFWTR). Debris objects in space refer to the collection of defunct objects orbiting the Earth. Examples of debris include non-operational satellites, rocket bodies, and fragments generated from explosions, collisions, or faulty payload assembly.

Loading next visibility...
Identifier
1522, 1965-065L
Orbit
LEO
Country
Flag of USUS
Related business
Manufacturer
Unknown
Mission
Spacecraft
Bus & Motor
Unknown
Mass
Unknown
Launch date (UTC)
1965-08-13 (60 years ago)
Launch vehicle
Unknown
Launch site
Air Force Western Test Range (AFWTR)
Object type
Payload
Rocket body
Debris
Shape & HBR
Unknown shape, 0.4 m
Radar Cross Section
Medium (>0.1 m² and <1 m²)

Expand to show TLE details & history
Last TLE update: 12 hours ago

TLE from 12 hours ago
0 THOR ABLESTAR DEB
1 01522U 65065L   25293.58067203  .00000091  00000-0  16504-3 0  9993
2 01522  90.0767 124.7530 0070333 199.2450 245.8583 13.33832307927858
Epoch: 2025-10-20T13:56Z
TLE epoch observation values (Epoch: 2025-10-20T13:56:10.063Z)
Latitude
84.39158°
Longitude
-114.34699°
Altitude
1,168.024 km
Speed
7.265 km/s
True Right ascension
08h 15m 54s
True Declination
84° 21' 35"
Sunlit
Object was in daylight at epoch
Visualization orbit readout
Latitude
Unknown
Longitude
Unknown
Altitude
Unknown
Speed
Unknown
Apparent Right ascension
Unknown
Apparent Declination
Unknown
Sunlit
N/A
Visualization observer readout
Local Sidereal Time
20:26:57
Azimuth
Unknown
Elevation
Unknown
Doppler factor
Unknown
Orbital elements
Apogee altitude
1,182.219 km
Perigee altitude
1,076.613 km
Semi-major axis
7,507.553 km
Eccentricity
0.00703
Inclination
90.0767°
RAAN
124.753°
Arg. of periapsis
199.245°
True anomaly
245.12549°
Mean anomaly
245.8583°
Eccentric anomaly
245.49163°
Mean motion
3.33653 °/min
Orbital period
107.9 mins
BSTAR
0.00016504
Loading maneuver chart data...
Computing Atmospheric mass density...
Loading historical data...
Loading historical data...
Loading historical data...
Loading historical data...
Loading historical data...
Loading historical data...
Loading historical data...

Documentation

Showing up to 5 results
|